When you browse on this site, cookies collect data to enhance your experience and personalize the content and advertising you see.
Visit our Privacy Policy to learn more. By continuing to use the site, you agree to this use of cookies and data.
  • In Hungary
  • List of Countries
  • For 7 days
  • Water Temperature
  • Satellite Maps
  • Weather Map
  • News
  • Weather Widgets
  • user-avatar
    Login

    Hourly Weather Pontypool

    Today, 22 January, Tuesday

    Time Temperature Precipitation Wind Pressure Humidity
    00:00 +3°C° 1.4 mm 6 mps 740 mmHg 84%
    01:00 +2°C° 0 mm 6 mps 739 mmHg 84%
    02:00 +1°C° 0 mm 5 mps 739 mmHg 83%
    03:00 0°C° 0 mm 5 mps 739 mmHg 83%
    04:00 -1°C° 0 mm 5 mps 738 mmHg 83%
    05:00 -1°C° 0 mm 5 mps 738 mmHg 83%
    06:00 -1°C° 0 mm 5 mps 738 mmHg 83%
    07:00 -1°C° 0 mm 4 mps 738 mmHg 82%
    08:00 -1°C° 0 mm 4 mps 738 mmHg 82%
    09:00 -1°C° 0 mm 4 mps 737 mmHg 82%
    10:00 0°C° 0.1 mm 4 mps 737 mmHg 79%
    11:00 +3°C° 0.1 mm 4 mps 737 mmHg 76%
    12:00 +3°C° 0.1 mm 5 mps 736 mmHg 73%
    13:00 +2°C° 0.3 mm 5 mps 736 mmHg 73%
    14:00 +2°C° 0.3 mm 6 mps 735 mmHg 74%
    15:00 +2°C° 0.3 mm 6 mps 735 mmHg 74%
    16:00 +1°C° 0 mm 5 mps 735 mmHg 77%
    17:00 0°C° 0 mm 5 mps 735 mmHg 81%
    18:00 -1°C° 0 mm 4 mps 735 mmHg 84%
    19:00 -2°C° 0 mm 4 mps 735 mmHg 85%
    20:00 -2°C° 0 mm 4 mps 735 mmHg 86%
    21:00 -1°C° 0 mm 3 mps 735 mmHg 87%
    22:00 -1°C° 0 mm 3 mps 735 mmHg 87%
    23:00 -1°C° 0 mm 3 mps 735 mmHg 87%

    Tomorrow, 23 January, Wednesday

    Time Temperature Precipitation Wind Pressure Humidity
    00:00 -2°C° 0 mm 4 mps 735 mmHg 87%
    01:00 -2°C° 0 mm 4 mps 735 mmHg 87%
    02:00 -2°C° 0 mm 4 mps 735 mmHg 86%
    03:00 -2°C° 0 mm 4 mps 735 mmHg 85%
    04:00 -2°C° 0 mm 4 mps 736 mmHg 84%
    05:00 -2°C° 0 mm 4 mps 736 mmHg 83%
    06:00 -2°C° 0 mm 5 mps 737 mmHg 82%
    07:00 -2°C° 0 mm 5 mps 737 mmHg 81%
    08:00 -2°C° 0 mm 4 mps 738 mmHg 80%
    09:00 -2°C° 0 mm 4 mps 739 mmHg 80%
    10:00 0°C° 0 mm 5 mps 739 mmHg 74%
    11:00 +1°C° 0 mm 5 mps 740 mmHg 69%
    12:00 +2°C° 0 mm 5 mps 740 mmHg 64%
    13:00 +2°C° 0 mm 5 mps 740 mmHg 66%
    14:00 +3°C° 0 mm 4 mps 741 mmHg 67%
    15:00 +3°C° 0 mm 4 mps 741 mmHg 68%
    16:00 +2°C° 0 mm 3 mps 741 mmHg 74%
    17:00 +2°C° 0 mm 2 mps 742 mmHg 79%
    18:00 +1°C° 0 mm 2 mps 742 mmHg 85%
    19:00 -1°C° 0 mm 2 mps 743 mmHg 85%
    20:00 +1°C° 0 mm 1 mps 743 mmHg 86%
    21:00 +1°C° 0 mm 1 mps 744 mmHg 86%
    22:00 +1°C° 0 mm 1 mps 744 mmHg 86%
    23:00 +1°C° 0 mm 1 mps 744 mmHg 85%

    Day after tomorrow, 24 January, Thursday

    Time Temperature Precipitation Wind Pressure Humidity
    00:00 0°C° 0 mm 0 mps 744 mmHg 84%
    01:00 +1°C° 0 mm 0 mps 745 mmHg 83%
    02:00 +1°C° 0 mm 0 mps 745 mmHg 82%
    03:00 +2°C° 0 mm 1 mps 745 mmHg 81%
    04:00 +2°C° 0 mm 1 mps 745 mmHg 84%
    05:00 +2°C° 0 mm 1 mps 745 mmHg 87%
    06:00 +1°C° 0 mm 2 mps 745 mmHg 90%
    07:00 +1°C° 0 mm 2 mps 745 mmHg 90%
    08:00 +2°C° 0 mm 2 mps 745 mmHg 91%
    09:00 +2°C° 0 mm 2 mps 745 mmHg 91%
    10:00 +3°C° 0.4 mm 2 mps 745 mmHg 91%
    11:00 +2°C° 0.4 mm 3 mps 746 mmHg 91%
    12:00 +3°C° 0.4 mm 3 mps 746 mmHg 91%
    13:00 +3°C° 0.4 mm 3 mps 745 mmHg 93%
    14:00 +4°C° 0.4 mm 3 mps 745 mmHg 95%
    15:00 +5°C° 0.4 mm 2 mps 745 mmHg 96%
    16:00 +5°C° 0.1 mm 2 mps 745 mmHg 96%
    17:00 +5°C° 0.1 mm 3 mps 745 mmHg 96%
    18:00 +5°C° 0.1 mm 3 mps 745 mmHg 96%
    19:00 +7°C° 0 mm 3 mps 746 mmHg 95%
    20:00 +7°C° 0 mm 3 mps 746 mmHg 95%
    21:00 +7°C° 0 mm 3 mps 746 mmHg 94%
    22:00 +6°C° 0 mm 4 mps 746 mmHg 94%
    23:00 +6°C° 0 mm 4 mps 746 mmHg 94%

    25 January, Friday

    Time Temperature Precipitation Wind Pressure Humidity
    00:00 +6°C° 0 mm 4 mps 746 mmHg 94%
    01:00 +6°C° 0 mm 4 mps 746 mmHg 94%
    02:00 +6°C° 0 mm 4 mps 746 mmHg 94%
    03:00 +6°C° 0 mm 4 mps 746 mmHg 95%
    04:00 +6°C° 0 mm 4 mps 746 mmHg 95%
    05:00 +6°C° 0 mm 4 mps 746 mmHg 95%
    06:00 +6°C° 0 mm 4 mps 746 mmHg 95%
    07:00 +6°C° 0 mm 4 mps 746 mmHg 94%
    08:00 +6°C° 0 mm 4 mps 746 mmHg 94%
    09:00 +6°C° 0 mm 4 mps 746 mmHg 93%
    10:00 +6°C° 0 mm 5 mps 746 mmHg 88%
    11:00 +7°C° 0 mm 6 mps 746 mmHg 83%
    12:00 +8°C° 0 mm 6 mps 746 mmHg 78%
    13:00 +8°C° 0 mm 6 mps 745 mmHg 79%
    14:00 +8°C° 0 mm 6 mps 744 mmHg 80%
    15:00 +8°C° 0 mm 6 mps 743 mmHg 81%
    16:00 +8°C° 0.2 mm 7 mps 743 mmHg 85%
    17:00 +8°C° 0.2 mm 7 mps 742 mmHg 89%
    18:00 +7°C° 0.2 mm 8 mps 742 mmHg 92%
    19:00 +8°C° 0.1 mm 7 mps 741 mmHg 93%
    20:00 +8°C° 0.1 mm 6 mps 741 mmHg 93%
    21:00 +9°C° 0.1 mm 5 mps 740 mmHg 94%
    22:00 +8°C° 1.5 mm 5 mps 740 mmHg 95%
    23:00 +8°C° 1.5 mm 5 mps 739 mmHg 95%

    26 January, Saturday

    Time Temperature Precipitation Wind Pressure Humidity
    00:00 +7°C° 1.5 mm 5 mps 738 mmHg 96%
    01:00 +6°C° 1 mm 5 mps 738 mmHg 95%
    02:00 +5°C° 1 mm 5 mps 737 mmHg 95%
    03:00 +4°C° 1 mm 4 mps 736 mmHg 94%
    04:00 +3°C° 2.3 mm 6 mps 735 mmHg 91%
    05:00 +2°C° 2.3 mm 7 mps 735 mmHg 89%
    06:00 +1°C° 2.3 mm 8 mps 734 mmHg 87%
    07:00 +2°C° 0.4 mm 7 mps 735 mmHg 86%
    08:00 +2°C° 0.4 mm 7 mps 736 mmHg 85%
    09:00 +2°C° 0.4 mm 7 mps 736 mmHg 85%
    10:00 +2°C° 0 mm 7 mps 737 mmHg 82%
    11:00 +2°C° 0 mm 7 mps 737 mmHg 78%
    12:00 +2°C° 0 mm 8 mps 738 mmHg 75%
    13:00 +2°C° 0 mm 8 mps 738 mmHg 75%
    14:00 +2°C° 0 mm 8 mps 738 mmHg 74%
    15:00 +2°C° 0 mm 8 mps 738 mmHg 74%
    16:00 +2°C° 0 mm 7 mps 739 mmHg 76%
    17:00 +1°C° 0 mm 6 mps 739 mmHg 79%
    18:00 +1°C° 0 mm 5 mps 740 mmHg 81%
    19:00 0°C° 0 mm 5 mps 740 mmHg 80%
    20:00 0°C° 0 mm 5 mps 741 mmHg 79%
    21:00 0°C° 0 mm 5 mps 741 mmHg 78%
    22:00 -1°C° 0 mm 5 mps 742 mmHg 79%
    23:00 -1°C° 0 mm 5 mps 742 mmHg 79%

    27 January, Sunday

    Time Temperature Precipitation Wind Pressure Humidity
    00:00 -1°C° 0 mm 5 mps 742 mmHg 79%
    01:00 -1°C° 0 mm 5 mps 742 mmHg 79%
    02:00 -1°C° 0 mm 5 mps 742 mmHg 78%
    03:00 -2°C° 0 mm 4 mps 742 mmHg 77%
    04:00 -2°C° 0 mm 4 mps 742 mmHg 79%
    05:00 -2°C° 0 mm 4 mps 742 mmHg 81%
    06:00 -2°C° 0 mm 4 mps 742 mmHg 83%
    07:00 -1°C° 0 mm 4 mps 742 mmHg 84%
    08:00 0°C° 0 mm 3 mps 742 mmHg 85%
    09:00 0°C° 0 mm 3 mps 742 mmHg 85%
    10:00 0°C° 0 mm 4 mps 742 mmHg 78%
    11:00 +1°C° 0 mm 5 mps 742 mmHg 70%
    12:00 +3°C° 0 mm 5 mps 742 mmHg 62%
    13:00 +2°C° 0 mm 5 mps 741 mmHg 63%
    14:00 +3°C° 0 mm 4 mps 741 mmHg 64%
    15:00 +3°C° 0 mm 4 mps 741 mmHg 65%
    16:00 +2°C° 0 mm 3 mps 741 mmHg 71%
    17:00 +1°C° 0 mm 3 mps 742 mmHg 77%
    18:00 0°C° 0 mm 3 mps 742 mmHg 82%
    19:00 -1°C° 0 mm 3 mps 742 mmHg 84%
    20:00 -1°C° 0 mm 3 mps 743 mmHg 85%
    21:00 -2°C° 0 mm 3 mps 744 mmHg 86%
    22:00 -2°C° 0 mm 3 mps 744 mmHg 85%
    23:00 -2°C° 0 mm 3 mps 745 mmHg 84%
    Show more